This is the latest recevied weather packets stored in our database for station/object KC8PTQ. If no packets are shown the sender has not sent any weather packets the latest 10 day(s).
| Time | Temp. | Humidity | Pressure | Rain* | Wind** | Luminosity | Snow |
|---|---|---|---|---|---|---|---|
| 1777387257 | 15° C | 91% | 1013.6 hPa | 0 mm | - | 185 W/m² | - |
| 1777386952 | 15° C | 91% | 1013.7 hPa | 0 mm | - | 80 W/m² | - |
| 1777386649 | 15° C | 91% | 1013.7 hPa | 0 mm | - | 149 W/m² | - |
| 1777386346 | 15° C | 91% | 1013.3 hPa | 0 mm | - | 172 W/m² | - |
| 1777386044 | 15° C | 91% | 1013.3 hPa | 0 mm | - | 136 W/m² | - |
| 1777385740 | 14.44° C | 91% | 1013.6 hPa | 0 mm | - | 149 W/m² | - |
| 1777385437 | 14.44° C | 92% | 1013.4 hPa | 0 mm | - | 143 W/m² | - |
| 1777385133 | 14.44° C | 92% | 1013.3 hPa | 0 mm | - | 93 W/m² | - |
| 1777384829 | 14.44° C | 91% | 1013.2 hPa | 0 mm | - | 114 W/m² | - |
| 1777384526 | 13.89° C | 92% | 1013.2 hPa | 0 mm | - | 105 W/m² | - |
| 1777384221 | 14.44° C | 92% | 1013.2 hPa | 0 mm | - | 107 W/m² | - |
| 1777383917 | 13.89° C | 92% | 1013.4 hPa | 0 mm | - | 102 W/m² | - |
| 1777383613 | 13.89° C | 92% | 1013.3 hPa | 0 mm | - | 103 W/m² | - |
| 1777383304 | 13.89° C | 91% | 1013.3 hPa | 0 mm | - | 93 W/m² | - |
| 1777383000 | 13.89° C | 92% | 1013 hPa | 0 mm | - | 141 W/m² | - |
| 1777382697 | 13.89° C | 91% | 1012.8 hPa | 0 mm | - | 87 W/m² | - |
| 1777382392 | 13.89° C | 91% | 1013 hPa | 0 mm | - | 86 W/m² | - |
| 1777382089 | 13.89° C | 92% | 1013.2 hPa | 0 mm | - | 93 W/m² | - |
| 1777381785 | 13.89° C | 92% | 1013 hPa | 0 mm | - | 117 W/m² | - |
| 1777381478 | 13.89° C | 92% | 1012.9 hPa | 0 mm | - | 85 W/m² | - |
| 1777381175 | 13.89° C | 91% | 1012.9 hPa | 0 mm | - | 71 W/m² | - |
| 1777380873 | 13.89° C | 92% | 1012.9 hPa | 0 mm | - | 76 W/m² | - |
| 1777380570 | 13.89° C | 92% | 1012.9 hPa | 0 mm | - | 93 W/m² | - |
| 1777380265 | 13.33° C | 92% | 1012.9 hPa | 0 mm | - | 67 W/m² | - |
| 1777379962 | 13.89° C | 92% | 1012.6 hPa | 0 mm | - | 69 W/m² | - |
* Rain latest hour (hover to see other rain measurements)
** Current wind speed in m/s (hover to see current wind gust speed)